• In Hungary
  • List of Countries
  • For 7 days
  • Water Temperature
  • Satellite Maps
  • Weather Map
  • News
  • Weather Widgets
  • user-avatar
    Login

    Hourly Weather Dachau

    Today, 24 January, Wednesday

    Time Temperature Precipitation Wind Pressure Humidity
    00:00 +1°C° 0 mm 2 mps 725 mmHg 88%
    01:00 -1°C° 0 mm 3 mps 725 mmHg 87%
    02:00 0°C° 0 mm 3 mps 725 mmHg 85%
    03:00 0°C° 0 mm 3 mps 725 mmHg 83%
    04:00 0°C° 0 mm 3 mps 725 mmHg 82%
    05:00 0°C° 0 mm 3 mps 725 mmHg 81%
    06:00 +1°C° 0 mm 3 mps 725 mmHg 80%
    07:00 +1°C° 0 mm 3 mps 725 mmHg 79%
    08:00 +3°C° 0 mm 2 mps 725 mmHg 79%
    09:00 +4°C° 0 mm 2 mps 725 mmHg 78%
    10:00 +4°C° 0 mm 2 mps 725 mmHg 78%
    11:00 +6°C° 0 mm 2 mps 724 mmHg 78%
    12:00 +7°C° 0 mm 2 mps 724 mmHg 78%
    13:00 +8°C° 0 mm 2 mps 723 mmHg 77%
    14:00 +8°C° 0 mm 2 mps 723 mmHg 79%
    15:00 +7°C° 0 mm 2 mps 722 mmHg 80%
    16:00 +7°C° 0 mm 2 mps 722 mmHg 82%
    17:00 +6°C° 0 mm 2 mps 722 mmHg 82%
    18:00 +5°C° 0 mm 2 mps 722 mmHg 82%
    19:00 +4°C° 0 mm 2 mps 722 mmHg 82%
    20:00 +3°C° 0 mm 2 mps 722 mmHg 81%
    21:00 +3°C° 0 mm 2 mps 722 mmHg 80%
    22:00 +3°C° 0 mm 2 mps 722 mmHg 79%
    23:00 +3°C° 0 mm 2 mps 722 mmHg 78%

    Tomorrow, 25 January, Thursday

    Time Temperature Precipitation Wind Pressure Humidity
    00:00 +3°C° 0 mm 2 mps 722 mmHg 78%
    01:00 +3°C° 0 mm 2 mps 722 mmHg 77%
    02:00 +2°C° 0 mm 2 mps 721 mmHg 76%
    03:00 +2°C° 0 mm 2 mps 721 mmHg 76%
    04:00 +2°C° 0 mm 2 mps 721 mmHg 75%
    05:00 +2°C° 0 mm 2 mps 721 mmHg 74%
    06:00 +2°C° 0 mm 2 mps 720 mmHg 74%
    07:00 +2°C° 0 mm 2 mps 720 mmHg 73%
    08:00 +3°C° 0 mm 2 mps 720 mmHg 73%
    09:00 +4°C° 0 mm 2 mps 719 mmHg 73%
    10:00 +5°C° 0 mm 2 mps 719 mmHg 72%
    11:00 +6°C° 0 mm 2 mps 718 mmHg 71%
    12:00 +9°C° 0 mm 1 mps 718 mmHg 70%
    13:00 +10°C° 0 mm 1 mps 717 mmHg 69%
    14:00 +9°C° 0 mm 1 mps 717 mmHg 73%
    15:00 +9°C° 0 mm 1 mps 717 mmHg 77%
    16:00 +8°C° 0 mm 1 mps 717 mmHg 81%
    17:00 +7°C° 0 mm 1 mps 717 mmHg 82%
    18:00 +6°C° 0 mm 1 mps 716 mmHg 83%
    19:00 +5°C° 0 mm 1 mps 716 mmHg 84%
    20:00 +5°C° 0 mm 1 mps 716 mmHg 84%
    21:00 +5°C° 0 mm 1 mps 716 mmHg 85%
    22:00 +4°C° 0 mm 1 mps 716 mmHg 86%
    23:00 +4°C° 0 mm 1 mps 716 mmHg 85%

    Day after tomorrow, 26 January, Friday

    Time Temperature Precipitation Wind Pressure Humidity
    00:00 +4°C° 0 mm 1 mps 715 mmHg 85%
    01:00 +3°C° 0 mm 2 mps 715 mmHg 85%
    02:00 +4°C° 0 mm 1 mps 715 mmHg 85%
    03:00 +4°C° 0 mm 1 mps 714 mmHg 85%
    04:00 +4°C° 0 mm 1 mps 714 mmHg 86%
    05:00 +3°C° 0 mm 1 mps 714 mmHg 86%
    06:00 +3°C° 0 mm 1 mps 714 mmHg 87%
    07:00 +3°C° 0 mm 1 mps 714 mmHg 87%
    08:00 +3°C° 0 mm 1 mps 715 mmHg 88%
    09:00 +3°C° 0 mm 2 mps 715 mmHg 88%
    10:00 +4°C° 0 mm 2 mps 715 mmHg 88%
    11:00 +4°C° 0.1 mm 2 mps 716 mmHg 89%
    12:00 +5°C° 0.1 mm 2 mps 716 mmHg 89%
    13:00 +5°C° 0.1 mm 2 mps 716 mmHg 90%
    14:00 +5°C° 0.2 mm 2 mps 716 mmHg 91%
    15:00 +5°C° 0.2 mm 2 mps 717 mmHg 92%
    16:00 +4°C° 0.2 mm 2 mps 717 mmHg 93%
    17:00 +4°C° 0.4 mm 2 mps 717 mmHg 94%
    18:00 +4°C° 0.4 mm 2 mps 718 mmHg 95%
    19:00 +4°C° 0.4 mm 2 mps 718 mmHg 96%
    20:00 +3°C° 0.4 mm 2 mps 719 mmHg 96%
    21:00 +3°C° 0.4 mm 2 mps 719 mmHg 96%
    22:00 +3°C° 0.4 mm 2 mps 720 mmHg 96%
    23:00 +2°C° 0.4 mm 3 mps 720 mmHg 96%

    27 January, Saturday

    Time Temperature Precipitation Wind Pressure Humidity
    00:00 +2°C° 0.4 mm 3 mps 720 mmHg 96%
    01:00 +2°C° 0.4 mm 3 mps 720 mmHg 96%
    02:00 +2°C° 0.4 mm 3 mps 721 mmHg 96%
    03:00 +3°C° 0.4 mm 2 mps 721 mmHg 96%
    04:00 +3°C° 0.4 mm 2 mps 721 mmHg 97%
    05:00 +2°C° 0.3 mm 2 mps 721 mmHg 97%
    06:00 +2°C° 0.3 mm 2 mps 722 mmHg 97%
    07:00 +2°C° 0.3 mm 2 mps 722 mmHg 97%
    08:00 +2°C° 0.2 mm 2 mps 723 mmHg 96%
    09:00 +3°C° 0.2 mm 2 mps 723 mmHg 95%
    10:00 +3°C° 0.2 mm 2 mps 724 mmHg 94%
    11:00 +3°C° 0.1 mm 2 mps 724 mmHg 92%
    12:00 +4°C° 0.1 mm 2 mps 725 mmHg 90%
    13:00 +6°C° 0.1 mm 1 mps 725 mmHg 88%
    14:00 +5°C° 0 mm 1 mps 725 mmHg 89%
    15:00 +5°C° 0 mm 1 mps 725 mmHg 90%
    16:00 +5°C° 0 mm 1 mps 726 mmHg 91%
    17:00 +5°C° 0 mm 1 mps 726 mmHg 92%
    18:00 +5°C° 0 mm 1 mps 727 mmHg 93%
    19:00 +4°C° 0 mm 1 mps 728 mmHg 95%
    20:00 +4°C° 0 mm 1 mps 728 mmHg 95%
    21:00 +3°C° 0 mm 1 mps 728 mmHg 95%
    22:00 +3°C° 0 mm 1 mps 729 mmHg 96%
    23:00 +3°C° 0 mm 1 mps 729 mmHg 96%

    28 January, Sunday

    Time Temperature Precipitation Wind Pressure Humidity
    00:00 +2°C° 0 mm 1 mps 729 mmHg 95%
    01:00 +2°C° 0 mm 1 mps 729 mmHg 95%
    02:00 +2°C° 0 mm 1 mps 729 mmHg 95%
    03:00 +2°C° 0 mm 1 mps 730 mmHg 95%
    04:00 +2°C° 0 mm 1 mps 730 mmHg 96%
    05:00 +2°C° 0 mm 1 mps 730 mmHg 95%
    06:00 +2°C° 0 mm 1 mps 730 mmHg 95%
    07:00 +2°C° 0 mm 1 mps 731 mmHg 94%
    08:00 +1°C° 0 mm 0 mps 731 mmHg 92%
    09:00 +2°C° 0 mm 0 mps 731 mmHg 90%
    10:00 +3°C° 0 mm 0 mps 732 mmHg 87%
    11:00 +4°C° 0 mm 0 mps 732 mmHg 86%
    12:00 +4°C° 0 mm 0 mps 731 mmHg 84%
    13:00 +5°C° 0 mm 0 mps 731 mmHg 83%
    14:00 +5°C° 0 mm 0 mps 731 mmHg 84%
    15:00 +5°C° 0 mm 0 mps 731 mmHg 85%
    16:00 +4°C° 0 mm 0 mps 731 mmHg 86%
    17:00 +4°C° 0 mm 0 mps 731 mmHg 88%
    18:00 +3°C° 0 mm 0 mps 732 mmHg 90%
    19:00 +2°C° 0 mm 0 mps 732 mmHg 92%
    20:00 +1°C° 0 mm 0 mps 732 mmHg 92%
    21:00 +2°C° 0 mm 1 mps 732 mmHg 93%
    22:00 +2°C° 0 mm 1 mps 732 mmHg 93%
    23:00 +2°C° 0 mm 1 mps 732 mmHg 93%

    29 January, Monday

    Time Temperature Precipitation Wind Pressure Humidity
    00:00 +1°C° 0 mm 1 mps 732 mmHg 93%
    01:00 +1°C° 0 mm 1 mps 732 mmHg 92%
    02:00 +1°C° 0 mm 1 mps 732 mmHg 92%
    03:00 +1°C° 0 mm 1 mps 731 mmHg 91%
    04:00 +1°C° 0 mm 1 mps 731 mmHg 91%
    05:00 +1°C° 0 mm 1 mps 731 mmHg 90%
    06:00 +1°C° 0 mm 1 mps 731 mmHg 90%
    07:00 +1°C° 0 mm 1 mps 731 mmHg 89%
    08:00 +2°C° 0 mm 1 mps 731 mmHg 86%
    09:00 +3°C° 0 mm 1 mps 731 mmHg 82%
    10:00 +3°C° 0 mm 2 mps 731 mmHg 79%
    11:00 +4°C° 0 mm 2 mps 731 mmHg 75%
    12:00 +6°C° 0 mm 2 mps 731 mmHg 72%
    13:00 +7°C° 0 mm 2 mps 730 mmHg 68%
    14:00 +7°C° 0 mm 1 mps 730 mmHg 72%
    15:00 +7°C° 0 mm 1 mps 730 mmHg 76%
    16:00 +7°C° 0 mm 1 mps 730 mmHg 80%
    17:00 +6°C° 0 mm 1 mps 730 mmHg 82%
    18:00 +5°C° 0 mm 1 mps 730 mmHg 85%
    19:00 +3°C° 0 mm 1 mps 730 mmHg 88%
    20:00 +3°C° 0 mm 1 mps 730 mmHg 89%
    21:00 +2°C° 0 mm 2 mps 730 mmHg 89%
    22:00 +2°C° 0 mm 2 mps 730 mmHg 90%
    23:00 +1°C° 0 mm 2 mps 729 mmHg 89%
    Show more